.
WxDataArchive / Data Records for 2014-01-07
2014-01-06 January 2014 2014-01-08

Data Records for Tuesday, 07 January 2014

Time	Temp	Chill	HIndex	Humid	Dewpt	 Wind 	HiWind	WindDir	Rain 	Barom 
-----	----	-----	------	-----	-----	------	------	-------	-----	----- 
00:00	-12.0	-12.0	-12.0	67	-19.8	2	6	270	0.00	30.319 
00:05	-12.0	-12.0	-12.0	67	-19.8	2	5	248	0.00	30.319 
00:10	-12.0	-12.0	-12.0	67	-19.8	1	3	270	0.00	30.319 
00:15	-12.0	-12.0	-12.0	67	-19.8	2	5	248	0.00	30.320 
00:20	-12.0	-12.0	-12.0	66	-20.1	1	5	248	0.00	30.320 
00:25	-12.0	-12.0	-12.0	67	-19.8	2	5	248	0.00	30.320 
00:30	-12.0	-12.0	-12.0	67	-19.8	2	5	248	0.00	30.319 
00:35	-12.0	-12.0	-12.0	66	-20.1	1	3	248	0.00	30.319 
00:40	-12.0	-12.0	-12.0	66	-20.1	1	3	248	0.00	30.319 
00:45	-12.0	-12.0	-12.0	67	-19.8	1	3	248	0.00	30.317 
00:50	-12.0	-12.0	-12.0	67	-19.8	1	5	248	0.00	30.317 
00:55	-12.0	-12.0	-12.0	67	-19.8	2	7	248	0.00	30.317 
01:00	-12.0	-12.0	-12.0	67	-19.8	2	5	248	0.00	30.317 
01:05	-11.7	-11.7	-11.7	67	-19.5	1	4	248	0.00	30.317 
01:10	-11.7	-11.7	-11.7	67	-19.5	2	6	248	0.00	30.317 
01:15	-11.7	-11.7	-11.7	67	-19.5	2	5	248	0.00	30.315 
01:20	-11.7	-11.7	-11.7	67	-19.5	1	5	248	0.00	30.315 
01:25	-11.7	-11.7	-11.7	67	-19.5	1	4	248	0.00	30.315 
01:30	-11.7	-11.7	-11.7	67	-19.5	2	6	248	0.00	30.305 
01:35	-11.7	-11.7	-11.7	67	-19.5	1	6	248	0.00	30.305 
01:40	-11.7	-11.7	-11.7	67	-19.5	2	6	248	0.00	30.305 
01:45	-11.7	-11.7	-11.7	67	-19.5	1	4	248	0.00	30.314 
01:50	-11.7	-11.7	-11.7	67	-19.5	1	3	248	0.00	30.314 
01:55	-11.7	-11.7	-11.7	67	-19.5	1	4	248	0.00	30.314 
02:00	-11.7	-11.7	-11.7	67	-19.5	1	5	248	0.00	30.316 
02:05	-11.7	-11.7	-11.7	67	-19.5	1	3	270	0.00	30.316 
02:10	-11.7	-11.7	-11.7	67	-19.5	2	4	248	0.00	30.316 
02:15	-11.7	-11.7	-11.7	67	-19.5	1	4	248	0.00	30.317 
02:20	-11.7	-11.7	-11.7	67	-19.5	2	4	248	0.00	30.317 
02:25	-11.7	-11.7	-11.7	67	-19.5	1	5	248	0.00	30.317 
02:30	-11.5	-11.5	-11.5	67	-19.3	1	4	248	0.00	30.327 
02:35	-11.5	-11.5	-11.5	67	-19.3	1	4	248	0.00	30.327 
02:40	-11.5	-11.5	-11.5	67	-19.3	1	3	248	0.00	30.327 
02:45	-11.5	-11.5	-11.5	67	-19.3	1	4	248	0.00	30.330 
02:50	-11.5	-11.5	-11.5	67	-19.3	1	3	248	0.00	30.330 
02:55	-11.5	-11.5	-11.5	67	-19.3	1	5	248	0.00	30.330 
03:00	-11.2	-11.2	-11.2	67	-19.1	1	4	248	0.00	30.322 
03:05	-11.2	-11.2	-11.2	67	-19.1	2	5	248	0.00	30.322 
03:10	-11.2	-11.2	-11.2	67	-19.1	1	3	248	0.00	30.322 
03:15	-11.2	-11.2	-11.2	68	-18.8	2	4	270	0.00	30.319 
03:20	-11.2	-11.2	-11.2	68	-18.8	1	3	248	0.00	30.319 
03:25	-11.2	-11.2	-11.2	68	-18.8	1	4	248	0.00	30.319 
03:30	-11.2	-11.2	-11.2	68	-18.8	1	5	248	0.00	30.320 
03:35	-11.2	-11.2	-11.2	68	-18.8	1	3	248	0.00	30.320 
03:40	-11.2	-11.2	-11.2	68	-18.8	1	4	248	0.00	30.320 
03:45	-11.0	-11.0	-11.0	68	-18.6	1	5	248	0.00	30.320 
03:50	-11.0	-11.0	-11.0	68	-18.6	1	4	248	0.00	30.320 
03:55	-11.0	-11.0	-11.0	68	-18.6	1	3	248	0.00	30.320 
04:00	-11.0	-11.0	-11.0	68	-18.6	2	5	248	0.00	30.326 
04:05	-10.7	-10.7	-10.7	68	-18.3	1	3	270	0.00	30.326 
04:10	-10.7	-10.7	-10.7	68	-18.3	1	6	248	0.00	30.326 
04:15	-10.7	-10.7	-10.7	68	-18.3	1	4	248	0.00	30.335 
04:20	-10.5	-10.5	-10.5	68	-18.1	1	5	248	0.00	30.335 
04:25	-10.5	-10.5	-10.5	68	-18.1	1	3	248	0.00	30.335 
04:30	-10.7	-10.7	-10.7	68	-18.3	1	4	248	0.00	30.336 
04:35	-10.7	-10.7	-10.7	68	-18.3	1	4	248	0.00	30.336 
04:40	-11.0	-11.0	-11.0	68	-18.6	1	5	248	0.00	30.336 
04:45	-11.0	-11.0	-11.0	68	-18.6	1	3	248	0.00	30.338 
04:50	-11.2	-11.2	-11.2	68	-18.8	1	4	248	0.00	30.338 
04:55	-11.2	-11.2	-11.2	68	-18.8	1	3	248	0.00	30.338 
05:00	-11.5	-11.5	-11.5	68	-19.1	1	4	248	0.00	30.338 
05:05	-11.5	-11.5	-11.5	68	-19.1	0	2	248	0.00	30.338 
05:10	-11.7	-11.7	-11.7	68	-19.2	1	6	270	0.00	30.338 
05:15	-11.7	-11.7	-11.7	68	-19.2	1	5	248	0.00	30.340 
05:20	-11.7	-11.7	-11.7	68	-19.2	1	4	248	0.00	30.340 
05:25	-11.7	-11.7	-11.7	68	-19.2	1	3	248	0.00	30.340 
05:30	-11.7	-11.7	-11.7	68	-19.2	1	6	248	0.00	30.340 
05:35	-11.7	-11.7	-11.7	68	-19.2	1	4	248	0.00	30.340 
05:40	-11.7	-11.7	-11.7	68	-19.2	1	4	248	0.00	30.340 
05:45	-11.7	-11.7	-11.7	68	-19.2	1	4	248	0.00	30.339 
05:50	-11.7	-11.7	-11.7	68	-19.2	1	4	248	0.00	30.339 
05:55	-11.7	-11.7	-11.7	68	-19.2	1	4	248	0.00	30.339 
06:00	-11.7	-11.7	-11.7	68	-19.2	1	3	248	0.00	30.345 
06:05	-11.7	-11.7	-11.7	68	-19.2	1	3	248	0.00	30.345 
06:10	-11.7	-11.7	-11.7	68	-19.2	1	4	248	0.00	30.345 
06:15	-11.7	-11.7	-11.7	68	-19.2	1	4	248	0.00	30.345 
06:20	-11.7	-11.7	-11.7	69	-19.0	1	3	248	0.00	30.345 
06:25	-11.7	-11.7	-11.7	69	-19.0	1	3	248	0.00	30.345 
06:30	-11.7	-11.7	-11.7	68	-19.2	0	2	270	0.00	30.351 
06:35	-11.7	-11.7	-11.7	69	-19.0	1	4	270	0.00	30.351 
06:40	-11.7	-11.7	-11.7	69	-19.0	0	2	270	0.00	30.351 
06:45	-11.7	-11.7	-11.7	69	-19.0	1	4	248	0.00	30.355 
06:50	-11.7	-11.7	-11.7	69	-19.0	1	4	248	0.00	30.355 
06:55	-11.5	-11.5	-11.5	69	-18.8	1	4	248	0.00	30.355 
07:00	-11.5	-11.5	-11.5	69	-18.8	1	3	225	0.00	30.364 
07:05	-11.5	-11.5	-11.5	69	-18.8	0	2	225	0.00	30.364 
07:10	-11.5	-11.5	-11.5	69	-18.8	1	3	225	0.00	30.364 
07:15	-11.5	-11.5	-11.5	69	-18.8	0	2	225	0.00	30.365 
07:20	-11.2	-11.2	-11.2	69	-18.5	1	5	248	0.00	30.365 
07:25	-11.2	-11.2	-11.2	69	-18.5	1	3	248	0.00	30.365 
07:30	-11.2	-11.2	-11.2	69	-18.5	1	4	248	0.00	30.364 
07:35	-11.2	-11.2	-11.2	69	-18.5	1	3	248	0.00	30.364 
07:40	-11.2	-11.2	-11.2	69	-18.5	1	3	248	0.00	30.364 
07:45	-11.0	-11.0	-11.0	69	-18.3	1	4	248	0.00	30.368 
07:50	-11.0	-11.0	-11.0	69	-18.3	1	4	248	0.00	30.368 
07:55	-11.0	-11.0	-11.0	68	-18.6	0	2	270	0.00	30.368 
08:00	-11.0	-11.0	-11.0	68	-18.6	0	4	270	0.00	30.380 
08:05	-11.2	-11.2	-11.2	68	-18.8	1	3	248	0.00	30.380 
08:10	-11.2	-11.2	-11.2	68	-18.8	1	2	248	0.00	30.380 
08:15	-11.2	-11.2	-11.2	68	-18.8	0	2	248	0.00	30.382 
08:20	-11.2	-11.2	-11.2	68	-18.8	0	2	248	0.00	30.382 
08:25	-11.2	-11.2	-11.2	69	-18.5	0	3	248	0.00	30.382 
08:30	-11.2	-11.2	-11.2	69	-18.5	1	4	248	0.00	30.385 
08:35	-11.0	-11.0	-11.0	69	-18.3	0	2	248	0.00	30.385 
08:40	-11.0	-11.0	-11.0	69	-18.3	1	4	248	0.00	30.385 
08:45	-10.7	-10.7	-10.7	69	-18.0	1	4	248	0.00	30.385 
08:50	-10.5	-10.5	-10.5	69	-17.8	1	4	248	0.00	30.385 
08:55	-10.3	-10.3	-10.3	69	-17.6	2	4	248	0.00	30.385 
09:00	-10.3	-10.3	-10.3	69	-17.6	1	5	248	0.00	30.388 
09:05	-10.0	-10.0	-10.0	68	-17.6	1	4	248	0.00	30.388 
09:10	-9.8	-9.8	-9.8	68	-17.4	1	5	248	0.00	30.388 
09:15	-9.8	-9.8	-9.8	68	-17.4	1	6	248	0.00	30.401 
09:20	-9.6	-9.6	-9.6	68	-17.2	1	4	248	0.00	30.401 
09:25	-9.3	-9.3	-9.3	68	-16.9	2	7	248	0.00	30.401 
09:30	-9.3	-9.3	-9.3	68	-16.9	2	7	248	0.00	30.413 
09:35	-9.1	-9.1	-9.1	68	-16.8	1	3	248	0.00	30.413 
09:40	-8.9	-8.9	-8.9	68	-16.6	1	6	248	0.00	30.413 
09:45	-8.6	-8.6	-8.6	68	-16.3	1	3	248	0.00	30.411 
09:50	-8.2	-8.2	-8.2	68	-15.9	2	6	248	0.00	30.411 
09:55	-7.9	-7.9	-7.9	68	-15.6	1	4	248	0.00	30.411 
10:00	-7.7	-7.7	-7.7	68	-15.4	2	6	248	0.00	30.416 
10:05	-7.5	-7.5	-7.5	68	-15.2	1	5	248	0.00	30.416 
10:10	-7.5	-7.5	-7.5	67	-15.5	1	3	248	0.00	30.416 
10:15	-7.2	-7.2	-7.2	67	-15.2	1	4	248	0.00	30.428 
10:20	-7.0	-7.0	-7.0	67	-15.0	2	6	248	0.00	30.428 
10:25	-6.8	-6.8	-6.8	67	-14.8	1	3	270	0.00	30.428 
10:30	-6.8	-6.8	-6.8	67	-14.8	1	5	248	0.00	30.428 
10:35	-6.8	-6.8	-6.8	66	-15.1	2	6	248	0.00	30.428 
10:40	-6.5	-6.5	-6.5	66	-14.8	2	4	248	0.00	30.428 
10:45	-6.5	-6.5	-6.5	67	-14.5	1	5	248	0.00	30.431 
10:50	-6.3	-6.3	-6.3	67	-14.4	1	4	248	0.00	30.431 
10:55	-6.1	-6.1	-6.1	67	-14.2	1	4	248	0.00	30.431 
11:00	-5.9	-5.9	-5.9	67	-14.0	1	3	248	0.00	30.431 
11:05	-5.6	-5.6	-5.6	67	-13.7	1	3	248	0.00	30.431 
11:10	-5.4	-5.4	-5.4	67	-13.5	1	3	248	0.00	30.431 
11:15	-5.0	-5.0	-5.0	67	-13.1	1	2	248	0.00	30.422 
11:20	-4.8	-4.8	-4.8	67	-12.9	1	4	248	0.00	30.422 
11:25	-4.6	-4.6	-4.6	66	-13.0	2	3	248	0.00	30.422 
11:30	-4.3	-4.3	-4.3	66	-12.7	1	4	248	0.00	30.411 
11:35	-4.1	-4.1	-4.1	66	-12.5	1	4	248	0.00	30.411 
11:40	-3.9	-3.9	-3.9	66	-12.4	1	4	248	0.00	30.411 
11:45	-3.9	-3.9	-3.9	66	-12.4	1	5	248	0.00	30.403 
11:50	-3.9	-3.9	-3.9	65	-12.7	2	6	248	0.00	30.403 
11:55	-3.7	-3.7	-3.7	65	-12.5	2	5	248	0.00	30.403 
12:00	-3.7	-3.7	-3.7	65	-12.5	1	2	248	0.00	30.394 
12:05	-3.5	-3.5	-3.5	66	-12.0	1	3	248	0.00	30.394 
12:10	-3.3	-3.3	-3.3	65	-12.1	1	9	248	0.00	30.394 
12:15	-3.3	-3.3	-3.3	65	-12.1	1	7	248	0.00	30.390 
12:20	-3.1	-3.1	-3.1	65	-11.9	1	3	248	0.00	30.390 
12:25	-2.8	-2.8	-2.8	66	-11.3	0	2	225	0.00	30.390 
12:30	-2.4	-2.4	-2.4	66	-10.9	1	4	225	0.00	30.387 
12:35	-2.2	-2.2	-2.2	65	-11.0	1	4	248	0.00	30.387 
12:40	-2.2	-2.2	-2.2	65	-11.0	1	3	248	0.00	30.387 
12:45	-2.2	-2.2	-2.2	65	-11.0	1	6	248	0.00	30.382 
12:50	-1.6	-1.6	-1.6	65	-10.5	1	4	248	0.00	30.382 
12:55	-1.4	-1.4	-1.4	65	-10.3	2	5	248	0.00	30.382 
13:00	-1.2	-1.2	-1.2	65	-10.1	1	5	248	0.00	30.378 
13:05	-1.2	-1.2	-1.2	65	-10.1	2	5	248	0.00	30.378 
13:10	-1.0	-1.0	-1.0	65	-9.9	1	3	248	0.00	30.378 
13:15	-0.6	-0.6	-0.6	65	-9.5	1	3	248	0.00	30.367 
13:20	-0.4	-0.4	-0.4	64	-9.6	1	4	248	0.00	30.367 
13:25	-0.4	-0.4	-0.4	64	-9.6	2	5	270	0.00	30.367 
13:30	-0.4	-0.4	-0.4	63	-9.9	3	7	248	0.00	30.376 
13:35	-0.6	-0.6	-0.6	64	-9.8	1	5	248	0.00	30.376 
13:40	-0.4	-0.4	-0.4	64	-9.6	1	10	248	0.00	30.376 
13:45	-0.4	-0.4	-0.4	64	-9.6	1	4	248	0.00	30.370 
13:50	-0.4	-0.4	-0.4	64	-9.6	2	5	248	0.00	30.370 
13:55	-0.2	-0.2	-0.2	64	-9.4	2	7	248	0.00	30.370 
14:00	-0.2	-0.2	-0.2	64	-9.4	3	7	248	0.00	30.368 
14:05	-0.2	-0.2	-0.2	64	-9.4	2	6	248	0.00	30.368 
14:10	0.0	0.0	0.0	64	-9.2	1	4	248	0.00	30.368 
14:15	0.1	0.1	0.1	64	-9.1	1	4	248	0.00	30.367 
14:20	0.1	0.1	0.1	64	-9.1	1	4	248	0.00	30.367 
14:25	0.1	0.1	0.1	65	-8.8	1	5	270	0.00	30.367 
14:30	0.3	0.3	0.3	65	-8.6	1	6	248	0.00	30.365 
14:35	0.7	0.7	0.7	65	-8.3	2	6	248	0.00	30.365 
14:40	1.1	1.1	1.1	65	-7.9	2	5	248	0.00	30.365 
14:45	1.5	1.5	1.5	65	-7.5	2	5	248	0.00	30.372 
14:50	1.3	1.3	1.3	63	-8.3	3	7	248	0.00	30.372 
14:55	1.1	1.1	1.1	64	-8.2	2	4	248	0.00	30.372 
15:00	0.9	0.9	0.9	64	-8.4	2	7	248	0.00	30.378 
15:05	1.1	1.1	1.1	64	-8.2	1	6	248	0.00	30.378 
15:10	0.9	0.9	0.9	64	-8.4	2	6	248	0.00	30.378 
15:15	0.9	0.9	0.9	64	-8.4	1	4	270	0.00	30.381 
15:20	0.9	0.9	0.9	64	-8.4	2	6	248	0.00	30.381 
15:25	0.7	0.7	0.7	64	-8.6	2	6	248	0.00	30.381 
15:30	0.5	0.5	0.5	64	-8.8	3	7	248	0.00	30.383 
15:35	0.3	0.3	0.3	64	-9.0	2	6	248	0.00	30.383 
15:40	0.3	0.3	0.3	65	-8.6	1	5	270	0.00	30.383 
15:45	0.5	0.5	0.5	65	-8.5	1	4	248	0.00	30.384 
15:50	0.5	0.5	0.5	65	-8.5	1	4	248	0.00	30.384 
15:55	0.7	0.7	0.7	65	-8.3	1	5	248	0.00	30.384 
16:00	0.7	0.7	0.7	65	-8.3	1	4	248	0.00	30.384 
16:05	0.7	0.7	0.7	65	-8.3	1	3	248	0.00	30.384 
16:10	0.9	0.9	0.9	65	-8.1	1	4	248	0.00	30.384 
16:15	0.9	0.9	0.9	66	-7.8	1	5	248	0.00	30.385 
16:20	1.1	1.1	1.1	66	-7.6	1	5	248	0.00	30.385 
16:25	1.1	1.1	1.1	66	-7.6	1	5	248	0.00	30.385 
16:30	1.3	1.3	1.3	66	-7.4	0	1	248	0.00	30.383 
16:35	1.5	1.5	1.5	67	-6.9	0	2	248	0.00	30.383 
16:40	1.5	1.5	1.5	66	-7.2	1	4	248	0.00	30.383 
16:45	1.5	1.5	1.5	66	-7.2	0	3	248	0.00	30.380 
16:50	1.5	1.5	1.5	66	-7.2	1	4	225	0.00	30.380 
16:55	1.3	1.3	1.3	66	-7.4	1	3	248	0.00	30.380 
17:00	1.3	1.3	1.3	66	-7.4	0	3	248	0.00	30.378 
17:05	1.3	1.3	1.3	67	-7.1	0	3	248	0.00	30.378 
17:10	1.3	1.3	1.3	67	-7.1	0	2	270	0.00	30.378 
17:15	1.3	1.3	1.3	67	-7.1	0	2	248	0.00	30.380 
17:20	1.1	1.1	1.1	67	-7.3	0	1	248	0.00	30.380 
17:25	1.1	1.1	1.1	68	-7.0	0	2	248	0.00	30.380 
17:30	1.1	1.1	1.1	68	-7.0	0	2	248	0.00	30.374 
17:35	1.1	1.1	1.1	68	-7.0	0	2	248	0.00	30.374 
17:40	0.9	0.9	0.9	69	-6.8	0	2	248	0.00	30.374 
17:45	0.9	0.9	0.9	69	-6.8	0	5	248	0.00	30.380 
17:50	0.9	0.9	0.9	69	-6.8	1	5	270	0.00	30.380 
17:55	0.9	0.9	0.9	69	-6.8	0	2	248	0.00	30.380 
18:00	0.9	0.9	0.9	69	-6.8	0	2	248	0.00	30.381 
18:05	1.1	1.1	1.1	69	-6.7	1	4	248	0.00	30.381 
18:10	1.1	1.1	1.1	70	-6.4	0	3	248	0.00	30.381 
18:15	1.3	1.3	1.3	70	-6.2	0	4	225	0.00	30.382 
18:20	1.5	1.5	1.5	70	-6.0	0	1	225	0.00	30.382 
18:25	1.5	1.5	1.5	70	-6.0	0	1	225	0.00	30.382 
18:30	1.7	1.7	1.7	71	-5.5	0	3	225	0.00	30.384 
18:35	1.8	1.8	1.8	71	-5.4	0	1	248	0.00	30.384 
18:40	1.8	1.8	1.8	71	-5.4	0	2	248	0.00	30.384 
18:45	2.0	2.0	2.0	71	-5.2	0	1	248	0.00	30.386 
18:50	2.2	2.2	2.2	71	-5.0	0	2	248	0.00	30.386 
18:55	2.4	2.4	2.4	71	-4.8	0	2	248	0.00	30.386 
19:00	2.4	2.4	2.4	71	-4.8	0	1	158	0.00	30.383 
19:05	2.4	2.4	2.4	71	-4.8	0	2	248	0.00	30.383 
19:10	2.4	2.4	2.4	71	-4.8	0	2	248	0.00	30.383 
19:15	2.4	2.4	2.4	71	-4.8	0	2	248	0.00	30.387 
19:20	2.4	2.4	2.4	71	-4.8	0	2	248	0.00	30.387 
19:25	2.4	2.4	2.4	71	-4.8	0	1	248	0.00	30.387 
19:30	2.4	2.4	2.4	71	-4.8	0	1	248	0.00	30.389 
19:35	2.2	2.2	2.2	71	-5.0	0	1	248	0.00	30.389 
19:40	2.2	2.2	2.2	72	-4.7	0	1	248	0.00	30.389 
19:45	2.0	2.0	2.0	72	-4.9	0	1	248	0.00	30.393 
19:50	2.0	2.0	2.0	72	-4.9	0	1	248	0.00	30.393 
19:55	2.0	2.0	2.0	72	-4.9	0	2	248	0.00	30.393 
20:00	2.2	2.2	2.2	72	-4.7	0	1	248	0.00	30.396 
20:05	2.2	2.2	2.2	72	-4.7	0	2	248	0.00	30.396 
20:10	2.0	2.0	2.0	73	-4.6	0	1	248	0.00	30.396 
20:15	2.0	2.0	2.0	73	-4.6	0	1	248	0.00	30.399 
20:20	2.2	2.2	2.2	73	-4.4	0	1	248	0.00	30.399 
20:25	2.2	2.2	2.2	73	-4.4	0	1	248	0.00	30.399 
20:30	2.2	2.2	2.2	73	-4.4	0	1	248	0.00	30.410 
20:35	2.2	2.2	2.2	73	-4.4	0	1	248	0.00	30.410 
20:40	2.4	2.4	2.4	74	-4.0	0	1	248	0.00	30.410 
20:45	2.4	2.4	2.4	74	-4.0	0	1	248	0.00	30.411 
20:50	2.8	2.8	2.8	75	-3.3	0	2	248	0.00	30.411 
20:55	3.2	3.2	3.2	75	-2.9	0	3	248	0.00	30.411 
21:00	3.5	3.5	3.5	75	-2.6	0	2	248	0.00	30.408 
21:05	4.1	4.1	4.1	76	-1.8	1	3	248	0.00	30.408 
21:10	4.5	4.5	4.5	75	-1.6	1	3	248	0.00	30.408 
21:15	5.0	5.0	5.0	75	-1.2	0	2	248	0.00	30.405 
21:20	5.2	5.2	5.2	75	-1.0	0	2	248	0.00	30.405 
21:25	5.4	5.4	5.4	75	-0.8	1	5	248	0.00	30.405 
21:30	5.6	5.6	5.6	75	-0.6	0	2	248	0.00	30.405 
21:35	5.6	5.6	5.6	74	-0.9	0	3	248	0.00	30.405 
21:40	5.6	5.6	5.6	74	-0.9	1	3	248	0.00	30.405 
21:45	5.8	5.8	5.8	74	-0.7	0	4	270	0.00	30.403 
21:50	5.8	5.8	5.8	74	-0.7	0	3	270	0.00	30.403 
21:55	5.8	5.8	5.8	74	-0.7	0	2	248	0.00	30.403 
22:00	5.8	5.8	5.8	74	-0.7	0	2	248	0.00	30.405 
22:05	5.8	5.8	5.8	74	-0.7	0	2	248	0.00	30.405 
22:10	5.8	5.8	5.8	74	-0.7	0	3	248	0.00	30.405 
22:15	5.8	5.8	5.8	74	-0.7	0	5	248	0.00	30.404 
22:20	6.0	6.0	6.0	74	-0.5	0	1	248	0.00	30.404 
22:25	6.0	6.0	6.0	74	-0.5	0	1	248	0.00	30.404 
22:30	6.0	6.0	6.0	74	-0.5	0	2	248	0.00	30.405 
22:35	6.1	6.1	6.1	74	-0.4	0	1	248	0.00	30.405 
22:40	6.3	6.3	6.3	74	-0.2	0	2	248	0.00	30.405 
22:45	6.3	6.3	6.3	74	-0.2	0	2	248	0.00	30.410 
22:50	6.5	6.5	6.5	74	0.0	0	3	248	0.00	30.410 
22:55	6.5	6.5	6.5	74	0.0	0	3	248	0.00	30.410 
23:00	6.7	6.7	6.7	74	0.2	0	1	248	0.00	30.409 
23:05	6.7	6.7	6.7	74	0.2	0	2	248	0.00	30.409 
23:10	6.9	6.9	6.9	74	0.4	0	2	248	0.00	30.409 
23:15	6.9	6.9	6.9	74	0.4	0	2	248	0.00	30.406 
23:20	7.0	7.0	7.0	74	0.5	0	2	248	0.00	30.406 
23:25	7.0	7.0	7.0	74	0.5	0	1	248	0.00	30.406 
23:30	7.2	7.2	7.2	74	0.7	0	1	248	0.00	30.404 
23:35	7.2	7.2	7.2	74	0.7	0	1	248	0.00	30.404 
23:40	7.2	7.2	7.2	74	0.7	0	1	248	0.00	30.404 
23:45	7.2	7.2	7.2	74	0.7	0	2	248	0.00	30.402 
23:50	7.2	7.2	7.2	74	0.7	0	3	248	0.00	30.402 
23:55	7.4	7.4	7.4	73	0.6	0	1	248	0.00	30.402 

CoCoRaHS
IN-AL-39
A2 Web Hosting
Creative Commons License
GoDaddy
search engine by freefind advanced

loaded 2018-11-22 05:21:33 • last modified 2010-11-18 10:43:29
Privacy PolicyDisclaimer
• wx.awcolley.com is powered by PmWiki v.2002016 •
• all content (unless otherwise noted) © 2018 A W Colley